Home   Weather   Portland   Past weeks

Flag for USA Past Weather in Portland, Maine, USA — Yesterday and Last 2 Weeks

Now
27 °F

Clear.


Feels Like: 20 °F
Forecast: 26 / 37 °F
Wind: 6 mph from North

Location: Portland - Portland International Jetport

Current Time: Dec 5, 2016 at 7:43:12 am

Latest Report: Dec 5, 2016 at 6:51 am


Visibility: 10 mi

Pressure: 30.09 "Hg

Humidity: 78%

Dew Point: 21 °F

Location of PortlandLocation

Past Weather in Portland — Graph

°F

Portland Temperature Yesterday

Maximum temperature yesterday: 41 °F (at 1:51 pm)
Minimum temperature yesterday: 25 °F (at 10:51 pm)
Average temperature yesterday: 33 °F

High & Low Weather Summary for the Past Weeks

 TemperatureHumidityPressure
High52 °F (Dec 1, 1:51 pm)100% (Nov 25, 11:58 pm)30.40 "Hg (Nov 25, 11:58 pm)
Low21 °F (Dec 5, 2:51 am)39% (Dec 4, 1:51 pm)29.12 "Hg (Nov 20, 1:51 pm)
Average37 °F76%29.91 "Hg
* Reported Nov 20 5:58 am — Dec 5 5:51 am, Portland, Weather by CustomWeather, © 2016

Note: Actual official high and low records may vary slightly from our data, if they occured in-between our weather recording intervals... More about our weather records

Advertising

Portland Weather History for the Previous 24 Hours

Scroll right to see more
 ConditionsComfort  
Time TempWeatherWind HumidityBarometerVisibility
5:51 am
Mon, Dec 5
24 °FOvercast.3 mph77%30.12 "Hg10 mi
4:51 am23 °FOvercast.3 mph81%30.15 "Hg10 mi
3:51 am21 °FClear.3 mph85%30.13 "Hg10 mi
2:51 am21 °FClear.5 mph81%30.14 "Hg10 mi
1:51 am22 °FClear.5 mph75%30.16 "Hg10 mi
12:51 am24 °FClear.3 mph71%30.16 "Hg10 mi
11:51 pm
Sun, Dec 4
25 °FClear.3 mph72%30.16 "Hg10 mi
10:51 pm25 °FClear.6 mph72%30.18 "Hg10 mi
9:51 pm27 °FClear.3 mph66%30.19 "Hg10 mi
8:51 pm27 °FClear.6 mph66%30.21 "Hg10 mi
7:51 pm30 °FClear.3 mph59%30.20 "Hg10 mi
6:51 pm30 °FClear.6 mph59%30.19 "Hg10 mi
5:51 pm31 °FClear.8 mph57%30.18 "Hg10 mi
4:51 pm33 °FPassing clouds.9 mph52%30.18 "Hg10 mi
3:51 pm36 °FPassing clouds.10 mph44%30.17 "Hg10 mi
2:51 pm39 °FPassing clouds.13 mph41%30.14 "Hg10 mi
1:51 pm41 °FPassing clouds.9 mph39%30.13 "Hg10 mi
12:51 pm40 °FSunny.15 mph43%30.12 "Hg10 mi
11:51 am39 °FPassing clouds.14 mph46%30.13 "Hg10 mi
10:51 am38 °FPassing clouds.15 mph48%30.14 "Hg10 mi
9:51 am36 °FPassing clouds.12 mph52%30.16 "Hg10 mi
8:51 am34 °FScattered clouds.6 mph59%30.14 "Hg10 mi
7:51 am32 °FOvercast.5 mph61%30.14 "Hg10 mi
Weather by CustomWeather, © 2016

See weather overviewHow to use our weather pages